Back to catalog

METEOR 2-20 DEB

AlivePO
NORAD 59999·DEBRIS·🇷🇺 Russia

Launched Sep 28, 1990 from Plesetsk Cosmodrome

Loading…

Next Passes (next 24 hours)

TLE

FreshSource: Space-Track

Epoch: Sep 10, 2026, 23:54 UTC

1 59999U 90086J   26253.99617178  .00000250  00000-0  17703-3 0  9998
2 59999  82.5729 120.5426 0015310  42.9905 317.2454 13.94106421512684

Track METEOR 2-20 DEB in real time with AllMySat

Download on the App Store